• In Belarus
  • List of Countries
  • For 7 days
  • Water Temperature
  • Satellite Maps
  • Weather Map
  • Weather Widgets
  • user-avatar
    Login

    Hourly Weather Saidpur

    Today, 22 February, Thursday

    Time Temperature Precipitation Wind Pressure Humidity
    00:00 +24°C° 0 mm 2 mps 755 mmHg 36%
    01:00 +23°C° 0 mm 1 mps 755 mmHg 38%
    02:00 +23°C° 0 mm 1 mps 754 mmHg 40%
    03:00 +22°C° 0 mm 1 mps 754 mmHg 41%
    04:00 +22°C° 0 mm 1 mps 754 mmHg 43%
    05:00 +21°C° 0 mm 1 mps 754 mmHg 44%
    06:00 +21°C° 0 mm 1 mps 755 mmHg 45%
    07:00 +23°C° 0 mm 1 mps 755 mmHg 41%
    08:00 +24°C° 0 mm 1 mps 755 mmHg 38%
    09:00 +26°C° 0 mm 1 mps 756 mmHg 35%
    10:00 +27°C° 0 mm 1 mps 756 mmHg 32%
    11:00 +29°C° 0 mm 1 mps 756 mmHg 28%
    12:00 +31°C° 0 mm 1 mps 756 mmHg 25%
    13:00 +31°C° 0 mm 2 mps 755 mmHg 24%
    14:00 +32°C° 0 mm 2 mps 754 mmHg 23%
    15:00 +33°C° 0 mm 3 mps 753 mmHg 21%
    16:00 +31°C° 0 mm 2 mps 753 mmHg 23%
    17:00 +30°C° 0 mm 2 mps 753 mmHg 25%
    18:00 +29°C° 0 mm 2 mps 753 mmHg 27%
    19:00 +28°C° 0 mm 2 mps 753 mmHg 28%
    20:00 +27°C° 0 mm 2 mps 754 mmHg 29%
    21:00 +26°C° 0 mm 2 mps 754 mmHg 30%
    22:00 +26°C° 0 mm 2 mps 754 mmHg 32%
    23:00 +25°C° 0 mm 2 mps 754 mmHg 34%

    Tomorrow, 23 February, Friday

    Time Temperature Precipitation Wind Pressure Humidity
    00:00 +25°C° 0 mm 2 mps 755 mmHg 35%
    01:00 +24°C° 0 mm 2 mps 754 mmHg 37%
    02:00 +24°C° 0 mm 2 mps 754 mmHg 38%
    03:00 +23°C° 0 mm 2 mps 754 mmHg 40%
    04:00 +23°C° 0 mm 2 mps 754 mmHg 41%
    05:00 +21°C° 0 mm 2 mps 754 mmHg 42%
    06:00 +22°C° 0 mm 1 mps 754 mmHg 44%
    07:00 +23°C° 0 mm 1 mps 755 mmHg 41%
    08:00 +25°C° 0 mm 1 mps 756 mmHg 39%
    09:00 +26°C° 0 mm 1 mps 756 mmHg 36%
    10:00 +28°C° 0 mm 1 mps 756 mmHg 33%
    11:00 +30°C° 0 mm 2 mps 756 mmHg 30%
    12:00 +32°C° 0 mm 2 mps 756 mmHg 27%
    13:00 +32°C° 0 mm 2 mps 755 mmHg 25%
    14:00 +34°C° 0 mm 3 mps 754 mmHg 23%
    15:00 +35°C° 0 mm 4 mps 753 mmHg 21%
    16:00 +34°C° 0 mm 3 mps 753 mmHg 23%
    17:00 +31°C° 0 mm 3 mps 753 mmHg 25%
    18:00 +30°C° 0 mm 2 mps 753 mmHg 27%
    19:00 +29°C° 0 mm 2 mps 754 mmHg 28%
    20:00 +28°C° 0 mm 2 mps 754 mmHg 30%
    21:00 +27°C° 0 mm 2 mps 755 mmHg 32%
    22:00 +27°C° 0 mm 2 mps 755 mmHg 34%
    23:00 +26°C° 0 mm 2 mps 755 mmHg 36%

    Day after tomorrow, 24 February, Saturday

    Time Temperature Precipitation Wind Pressure Humidity
    00:00 +25°C° 0 mm 3 mps 755 mmHg 38%
    01:00 +24°C° 0 mm 3 mps 755 mmHg 41%
    02:00 +24°C° 0 mm 3 mps 755 mmHg 43%
    03:00 +22°C° 0 mm 3 mps 755 mmHg 45%
    04:00 +23°C° 0 mm 2 mps 756 mmHg 47%
    05:00 +21°C° 0 mm 2 mps 756 mmHg 49%
    06:00 +21°C° 0 mm 2 mps 756 mmHg 51%
    07:00 +23°C° 0 mm 2 mps 757 mmHg 48%
    08:00 +25°C° 0 mm 3 mps 758 mmHg 44%
    09:00 +26°C° 0 mm 3 mps 759 mmHg 40%
    10:00 +28°C° 0 mm 3 mps 758 mmHg 36%
    11:00 +30°C° 0 mm 2 mps 758 mmHg 32%
    12:00 +32°C° 0 mm 2 mps 758 mmHg 28%
    13:00 +32°C° 0 mm 2 mps 757 mmHg 26%
    14:00 +34°C° 0 mm 2 mps 756 mmHg 24%
    15:00 +35°C° 0 mm 2 mps 755 mmHg 21%
    16:00 +34°C° 0 mm 2 mps 755 mmHg 23%
    17:00 +32°C° 0 mm 2 mps 755 mmHg 24%
    18:00 +31°C° 0 mm 2 mps 755 mmHg 26%
    19:00 +30°C° 0 mm 2 mps 756 mmHg 27%
    20:00 +29°C° 0 mm 2 mps 757 mmHg 29%
    21:00 +28°C° 0 mm 2 mps 757 mmHg 31%
    22:00 +27°C° 0 mm 2 mps 757 mmHg 33%
    23:00 +26°C° 0 mm 2 mps 757 mmHg 36%

    25 February, Sunday

    Time Temperature Precipitation Wind Pressure Humidity
    00:00 +25°C° 0 mm 2 mps 758 mmHg 38%
    01:00 +25°C° 0 mm 2 mps 757 mmHg 41%
    02:00 +24°C° 0 mm 2 mps 757 mmHg 43%
    03:00 +24°C° 0 mm 2 mps 757 mmHg 46%
    04:00 +23°C° 0 mm 2 mps 757 mmHg 48%
    05:00 +23°C° 0 mm 2 mps 757 mmHg 49%
    06:00 +21°C° 0 mm 2 mps 757 mmHg 51%
    07:00 +24°C° 0 mm 2 mps 758 mmHg 47%
    08:00 +25°C° 0 mm 3 mps 758 mmHg 43%
    09:00 +27°C° 0 mm 3 mps 759 mmHg 39%
    10:00 +29°C° 0 mm 2 mps 758 mmHg 35%
    11:00 +31°C° 0 mm 1 mps 758 mmHg 30%
    12:00 +33°C° 0 mm 1 mps 758 mmHg 26%
    13:00 +34°C° 0 mm 1 mps 757 mmHg 24%
    14:00 +35°C° 0 mm 2 mps 756 mmHg 22%
    15:00 +36°C° 0 mm 3 mps 755 mmHg 21%
    16:00 +35°C° 0 mm 2 mps 755 mmHg 23%
    17:00 +34°C° 0 mm 2 mps 755 mmHg 25%
    18:00 +32°C° 0 mm 2 mps 754 mmHg 26%
    19:00 +31°C° 0 mm 2 mps 755 mmHg 28%
    20:00 +30°C° 0 mm 2 mps 755 mmHg 29%
    21:00 +29°C° 0 mm 1 mps 756 mmHg 31%
    22:00 +28°C° 0 mm 2 mps 756 mmHg 33%
    23:00 +27°C° 0 mm 2 mps 756 mmHg 35%

    26 February, Monday

    Time Temperature Precipitation Wind Pressure Humidity
    00:00 +26°C° 0 mm 2 mps 755 mmHg 36%
    01:00 +26°C° 0 mm 2 mps 755 mmHg 38%
    02:00 +25°C° 0 mm 2 mps 755 mmHg 40%
    03:00 +24°C° 0 mm 2 mps 754 mmHg 42%
    04:00 +24°C° 0 mm 2 mps 755 mmHg 43%
    05:00 +23°C° 0 mm 2 mps 755 mmHg 45%
    06:00 +23°C° 0 mm 2 mps 755 mmHg 46%
    07:00 +24°C° 0 mm 2 mps 755 mmHg 43%
    08:00 +26°C° 0 mm 2 mps 756 mmHg 40%
    09:00 +28°C° 0 mm 2 mps 756 mmHg 37%
    10:00 +29°C° 0 mm 2 mps 756 mmHg 33%
    11:00 +31°C° 0 mm 2 mps 756 mmHg 30%
    12:00 +33°C° 0 mm 1 mps 755 mmHg 26%
    13:00 +35°C° 0 mm 2 mps 754 mmHg 25%
    14:00 +35°C° 0 mm 3 mps 753 mmHg 23%
    15:00 +36°C° 0 mm 4 mps 753 mmHg 21%
    16:00 +35°C° 0 mm 3 mps 753 mmHg 23%
    17:00 +34°C° 0 mm 3 mps 753 mmHg 26%
    18:00 +31°C° 0 mm 2 mps 753 mmHg 28%
    19:00 +30°C° 0 mm 2 mps 753 mmHg 29%
    20:00 +29°C° 0 mm 1 mps 754 mmHg 30%
    21:00 +29°C° 0 mm 1 mps 754 mmHg 31%
    22:00 +28°C° 0 mm 1 mps 754 mmHg 33%
    23:00 +27°C° 0 mm 2 mps 754 mmHg 35%

    27 February, Tuesday

    Time Temperature Precipitation Wind Pressure Humidity
    00:00 +27°C° 0 mm 2 mps 754 mmHg 36%
    01:00 +26°C° 0 mm 2 mps 754 mmHg 38%
    02:00 +25°C° 0 mm 2 mps 754 mmHg 41%
    03:00 +24°C° 0 mm 2 mps 754 mmHg 43%
    04:00 +24°C° 0 mm 2 mps 754 mmHg 44%
    05:00 +24°C° 0 mm 2 mps 754 mmHg 46%
    06:00 +23°C° 0 mm 2 mps 755 mmHg 47%
    07:00 +25°C° 0 mm 2 mps 755 mmHg 44%
    08:00 +26°C° 0 mm 2 mps 756 mmHg 40%
    09:00 +28°C° 0 mm 2 mps 756 mmHg 37%
    10:00 +30°C° 0 mm 2 mps 756 mmHg 33%
    11:00 +31°C° 0 mm 2 mps 755 mmHg 30%
    12:00 +34°C° 0 mm 2 mps 755 mmHg 26%
    13:00 +34°C° 0 mm 1 mps 754 mmHg 24%
    14:00 +35°C° 0 mm 1 mps 753 mmHg 22%
    15:00 +35°C° 0 mm 1 mps 752 mmHg 21%
    16:00 +34°C° 0 mm 1 mps 752 mmHg 22%
    17:00 +33°C° 0 mm 1 mps 752 mmHg 24%
    18:00 +32°C° 0 mm 1 mps 752 mmHg 26%
    19:00 +31°C° 0 mm 1 mps 753 mmHg 27%
    20:00 +30°C° 0 mm 1 mps 753 mmHg 28%
    21:00 +29°C° 0 mm 1 mps 754 mmHg 30%
    22:00 +29°C° 0 mm 1 mps 754 mmHg 31%
    23:00 +28°C° 0 mm 1 mps 754 mmHg 33%
    Show more